This demonstration page uses our WeatherBlox Daily Observations layout. Learn more.

39.01783, -85.05884

Hourly Observations for August 16, 2020

Temp ( °F °C ) Dew Point ( °F °C ) Humidity (%) Winds ( mph kmh ) Pressure ( in mb ) Visibility ( mi km ) Precip ( " mm )
12:52 am 00:52 Clear 73 22.8 66 18.9 79 79 S 5 7 29.91 1013 10 16.0934 0 0
1:52 am 01:52 Mostly Cloudy 74 23.3 65 18.3 74 74 SSE 3 6 29.91 1013 10 16.0934 0 0
2:52 am 02:52 Mostly Clear 71 21.7 65 18.3 81 81 SSE 5 7 29.91 1013 10 16.0934 0 0
3:52 am 03:52 Clear 71 21.7 66 18.9 84 84 SSE 6 9 29.9 1013 10 16.0934 0 0
4:52 am 04:52 Mostly Clear 70 21.1 66 18.9 87 87 SE 7 11 29.89 1012 10 16.0934 0 0
5:52 am 05:52 Clear 69 20.6 66 18.9 90 90 S 5 7 29.9 1013 10 16.0934 0 0
6:52 am 06:52 Clear 68 20 65 18.3 90 90 S 5 7 29.91 1013 10 16.0934 0 0
7:52 am 07:52 Mostly Sunny 69 20.6 67 19.4 93 93 S 5 7 29.92 1013 9 14.48406 0 0
8:52 am 08:52 Mostly Sunny 72 22.2 67 19.4 84 84 Calm 29.93 1014 10 16.0934 0 0
9:52 am 09:52 Mostly Sunny 77 25 69 20.6 77 77 Calm 29.92 1013 10 16.0934 0 0
10:52 am 10:52 Mostly Sunny 81 27.2 68 20 65 65 Calm 29.92 1013 10 16.0934 0 0
11:52 am 11:52 Mostly Cloudy 83 28.3 67 19.4 59 59 NW 7 11 29.93 1013 10 16.0934 0 0
12:19 pm 12:19 Cloudy with Light Rain 77 25 70 21.1 79 79 WNW 15 24 29.93 1014 3 4.82802 0.04 1.016
12:52 pm 12:52 Mostly Cloudy 81 27.2 71 21.7 72 72 WNW 14 22 29.94 1014 10 16.0934 0.05 1.27
1:52 pm 13:52 Mostly Cloudy 81 27.2 68 20 65 65 NNW 13 20 29.93 1014 10 16.0934 0 0
2:52 pm 14:52 Mostly Sunny 82 27.8 69 20.6 65 65 NW 14 22 29.93 1014 10 16.0934 0.05 1.27
3:52 pm 15:52 Partly Cloudy 83 28.3 61 16.1 48 48 NW 14 22 29.92 1013 10 16.0934 0 0
4:52 pm 16:52 Partly Cloudy 83 28.3 61 16.1 48 48 NNW 14 22 29.92 1013 10 16.0934 0 0
5:52 pm 17:52 Mostly Sunny 83 28.3 60 15.6 46 46 NNW 12 19 29.93 1014 10 16.0934 0 0
6:52 pm 18:52 Mostly Sunny 82 27.8 57 13.9 42 42 NNW 14 22 29.93 1013 10 16.0934 0 0
7:52 pm 19:52 Mostly Sunny 80 26.7 58 14.4 47 47 NNW 10 17 29.94 1014 10 16.0934 0 0
8:52 pm 20:52 Mostly Clear 76 24.4 58 14.4 54 54 NNW 6 9 29.95 1014 10 16.0934 0 0
9:52 pm 21:52 Clear 74 23.3 58 14.4 57 57 NW 6 9 29.96 1015 10 16.0934 0 0
10:52 pm 22:52 Clear 71 21.7 59 15 66 66 NW 6 9 29.96 1015 10 16.0934 0 0
11:52 pm 23:52 Clear 71 21.7 59 15 66 66 NW 6 9 29.98 1015 10 16.0934 0 0

Powered by AerisWeather